Location: Caixon
(43.4106°N, 0.0273°E)
Time: 16:17:03
(UTC+00:00)

PSLV R/B - Pass Details

Date: 16 October 2021
Orbit: 593 x 628 km, 98.0° (Epoch: 28 November)

Event Time Altitude Azimuth Distance (km) Brightness Sun altitude
Rises 04:49:28 0° 7° (N) 2,925 7.1 -16.3°
Reaches altitude 10° 04:51:44 10° 1° (N) 2,015 6.2 -15.9°
Maximum altitude 04:55:56 47° 288° (WNW) 841 3.8 -15.1°
Drops below altitude 10° 05:00:06 10° 215° (SW) 1,998 5.8 -14.4°
Enters shadow 05:01:14 - 212° (SSW) 2,452 6.3 -14.2°
